TimeMST,TemperatureF,Dew PointF,Humidity,Sea Level PressureIn,VisibilityMPH,Wind Direction,Wind SpeedMPH,Gust SpeedMPH,PrecipitationIn,Events,Conditions,WindDirDegrees,DateUTC
12:16 AM,-16.6,-23.8,70,30.49,-9999.0,Calm,Calm,-,N/A,,Clear,0,2013-01-18 07:16:00
12:36 AM,-16.6,-23.8,70,30.49,-9999.0,Calm,Calm,-,N/A,,Clear,0,2013-01-18 07:36:00
12:56 AM,-16.6,-23.8,70,30.49,-9999.0,Calm,Calm,-,N/A,,Clear,0,2013-01-18 07:56:00
1:16 AM,-16.6,-23.8,70,30.49,-9999.0,Calm,Calm,-,N/A,,Clear,0,2013-01-18 08:16:00
1:36 AM,-16.6,-23.8,70,30.50,-9999.0,Calm,Calm,-,N/A,,Clear,0,2013-01-18 08:36:00
1:56 AM,-16.6,-23.8,70,30.51,-9999.0,Calm,Calm,-,N/A,,Clear,0,2013-01-18 08:56:00
2:16 AM,-16.6,-23.8,70,30.50,-9999.0,Calm,Calm,-,N/A,,Clear,0,2013-01-18 09:16:00
2:36 AM,-18.4,-25.6,70,30.49,-9999.0,Calm,Calm,-,N/A,,Clear,0,2013-01-18 09:36:00
2:56 AM,-18.4,-25.6,70,30.50,-9999.0,Calm,Calm,-,N/A,,Clear,0,2013-01-18 09:56:00
3:16 AM,-20.2,-27.4,69,30.49,-9999.0,Calm,Calm,-,N/A,,Clear,0,2013-01-18 10:16:00
3:56 AM,-20.2,-27.4,69,30.49,-9999.0,Calm,Calm,-,N/A,,Clear,0,2013-01-18 10:56:00
4:15 AM,-18.4,-25.6,70,30.49,-9999.0,Calm,Calm,-,N/A,,Clear,0,2013-01-18 11:15:00
4:36 AM,-20.2,-27.4,69,30.48,-9999.0,Calm,Calm,-,N/A,,Clear,0,2013-01-18 11:36:00
4:56 AM,-20.2,-27.4,69,30.49,-9999.0,Calm,Calm,-,N/A,,Clear,0,2013-01-18 11:56:00
5:16 AM,-20.2,-27.4,69,30.48,-9999.0,ENE,3.5,-,N/A,,Clear,70,2013-01-18 12:16:00
5:36 AM,-22.0,-27.4,76,30.49,-9999.0,Calm,Calm,-,N/A,,Clear,0,2013-01-18 12:36:00
5:56 AM,-22.0,-27.4,76,30.49,-9999.0,Calm,Calm,-,N/A,,Mostly Cloudy,0,2013-01-18 12:56:00
6:16 AM,-22.0,-27.4,76,30.49,-9999.0,Calm,Calm,-,N/A,,Unknown,0,2013-01-18 13:16:00
6:36 AM,-20.2,-27.4,69,30.49,-9999.0,Calm,Calm,-,N/A,,Overcast,0,2013-01-18 13:36:00
6:56 AM,-22.0,-27.4,76,30.49,-9999.0,Calm,Calm,-,N/A,,Overcast,0,2013-01-18 13:56:00
7:36 AM,-18.4,-25.6,70,30.50,-9999.0,Calm,Calm,-,N/A,,Overcast,0,2013-01-18 14:36:00
7:56 AM,-18.4,-25.6,70,30.50,-9999.0,Calm,Calm,-,N/A,,Overcast,0,2013-01-18 14:56:00
8:16 AM,-18.4,-25.6,70,30.51,-9999.0,Calm,Calm,-,N/A,,Overcast,0,2013-01-18 15:16:00
8:36 AM,-16.6,-23.8,70,30.51,-9999.0,Calm,Calm,-,N/A,,Overcast,0,2013-01-18 15:36:00
9:16 AM,-13.0,-18.4,77,30.51,-9999.0,Calm,Calm,-,N/A,,Overcast,0,2013-01-18 16:16:00
9:36 AM,-13.0,-18.4,77,30.52,-9999.0,Calm,Calm,-,N/A,,Overcast,0,2013-01-18 16:36:00
9:56 AM,-9.4,-16.6,71,30.52,-9999.0,Calm,Calm,-,N/A,,Overcast,0,2013-01-18 16:56:00
10:16 AM,-7.6,-14.8,71,30.51,-9999.0,Calm,Calm,-,N/A,,Overcast,0,2013-01-18 17:16:00
10:36 AM,-5.8,-9.4,84,30.51,-9999.0,Calm,Calm,-,N/A,,Overcast,0,2013-01-18 17:36:00
10:56 AM,-2.2,-7.6,78,30.49,-9999.0,Calm,Calm,-,N/A,,Overcast,0,2013-01-18 17:56:00
11:16 AM,-0.4,-5.8,78,30.48,-9999.0,Calm,Calm,-,N/A,,Overcast,0,2013-01-18 18:16:00
11:36 AM,1.4,-4.0,78,30.47,-9999.0,Calm,Calm,-,N/A,,Overcast,0,2013-01-18 18:36:00
11:56 AM,3.2,-0.4,85,30.46,-9999.0,Calm,Calm,-,N/A,Snow,Light Snow,0,2013-01-18 18:56:00
12:16 PM,3.2,-0.4,85,30.44,-9999.0,Calm,Calm,-,N/A,Snow,Light Snow,0,2013-01-18 19:16:00
12:36 PM,8.6,1.4,73,30.43,-9999.0,Calm,Calm,-,N/A,,Scattered Clouds,0,2013-01-18 19:36:00
12:55 PM,8.6,1.4,73,30.42,-9999.0,Calm,Calm,-,N/A,,Clear,0,2013-01-18 19:55:00
1:16 PM,10.4,1.4,67,30.41,-9999.0,Calm,Calm,-,N/A,Snow,Light Snow,0,2013-01-18 20:16:00
1:36 PM,8.6,-4.0,57,30.41,-9999.0,Calm,Calm,-,N/A,,Clear,0,2013-01-18 20:36:00
1:56 PM,8.6,-4.0,57,30.40,-9999.0,Calm,Calm,-,N/A,,Clear,0,2013-01-18 20:56:00
2:16 PM,3.2,-5.8,66,30.39,-9999.0,Calm,Calm,-,N/A,,Clear,0,2013-01-18 21:16:00
2:36 PM,5.0,-5.8,61,30.38,-9999.0,Calm,Calm,-,N/A,,Clear,0,2013-01-18 21:36:00
2:56 PM,5.0,-5.8,61,30.38,-9999.0,Calm,Calm,-,N/A,,Clear,0,2013-01-18 21:56:00
3:16 PM,3.2,-5.8,66,30.38,-9999.0,Calm,Calm,-,N/A,,Clear,0,2013-01-18 22:16:00
3:36 PM,3.2,-5.8,66,30.39,-9999.0,South,3.5,-,N/A,,Clear,170,2013-01-18 22:36:00
3:56 PM,3.2,-5.8,66,30.39,-9999.0,Calm,Calm,-,N/A,,Clear,0,2013-01-18 22:56:00
4:16 PM,3.2,-5.8,66,30.39,-9999.0,Calm,Calm,-,N/A,,Clear,0,2013-01-18 23:16:00
4:36 PM,1.4,-7.6,66,30.39,-9999.0,Calm,Calm,-,N/A,,Clear,0,2013-01-18 23:36:00
4:56 PM,-0.4,-7.6,72,30.39,-9999.0,Calm,Calm,-,N/A,,Clear,0,2013-01-18 23:56:00
5:16 PM,-2.2,-9.4,71,30.39,-9999.0,Calm,Calm,-,N/A,,Clear,0,2013-01-19 00:16:00
5:36 PM,-4.0,-13.0,65,30.39,-9999.0,Calm,Calm,-,N/A,,Clear,0,2013-01-19 00:36:00
5:56 PM,-4.0,-9.4,78,30.40,-9999.0,Calm,Calm,-,N/A,,Clear,0,2013-01-19 00:56:00
6:16 PM,-5.8,-11.2,77,30.39,-9999.0,Calm,Calm,-,N/A,,Clear,0,2013-01-19 01:16:00
6:36 PM,-5.8,-11.2,77,30.39,-9999.0,Calm,Calm,-,N/A,,Clear,0,2013-01-19 01:36:00
6:56 PM,-7.6,-13.0,77,30.38,-9999.0,ESE,6.9,-,N/A,,Clear,120,2013-01-19 01:56:00
7:35 PM,-7.6,-13.0,77,30.38,-9999.0,Calm,Calm,-,N/A,,Clear,0,2013-01-19 02:35:00
7:56 PM,-9.4,-14.8,77,30.38,-9999.0,Calm,Calm,-,N/A,,Clear,0,2013-01-19 02:56:00
8:16 PM,-9.4,-14.8,77,30.37,-9999.0,Calm,Calm,-,N/A,,Clear,0,2013-01-19 03:16:00
8:36 PM,-9.4,-14.8,77,30.36,-9999.0,Calm,Calm,-,N/A,,Clear,0,2013-01-19 03:36:00
8:56 PM,-9.4,-14.8,77,30.36,-9999.0,Calm,Calm,-,N/A,,Clear,0,2013-01-19 03:56:00
9:15 PM,-9.4,-14.8,77,30.37,-9999.0,Calm,Calm,-,N/A,,Clear,0,2013-01-19 04:15:00
9:36 PM,-13.0,-18.4,77,30.37,-9999.0,Calm,Calm,-,N/A,,Clear,0,2013-01-19 04:36:00
9:56 PM,-13.0,-18.4,77,30.36,-9999.0,Calm,Calm,-,N/A,,Clear,0,2013-01-19 04:56:00
10:16 PM,-13.0,-16.6,84,30.37,-9999.0,Calm,Calm,-,N/A,,Scattered Clouds,0,2013-01-19 05:16:00
10:36 PM,-13.0,-18.4,77,30.37,-9999.0,Calm,Calm,-,N/A,,Scattered Clouds,0,2013-01-19 05:36:00
10:55 PM,-13.0,-18.4,77,30.37,-9999.0,Calm,Calm,-,N/A,Snow,Light Snow,0,2013-01-19 05:55:00
11:16 PM,-13.0,-18.4,77,30.36,-9999.0,ENE,3.5,-,N/A,,Clear,60,2013-01-19 06:16:00
11:36 PM,-14.8,-22.0,70,30.36,-9999.0,West,4.6,-,N/A,,Clear,270,2013-01-19 06:36:00
11:56 PM,-14.8,-22.0,70,30.36,-9999.0,Calm,Calm,-,N/A,,Clear,0,2013-01-19 06:56:00